Weather History for Bentonville, AR

Change the Weather History Date:

Tuesday, March 12, 2013

  Actual Average Record
Temperature  
Mean Temperature 40 °F -  
Max Temperature 53 °F 59 °F 86 °F (1967)
Min Temperature 28 °F 36 °F -12 °F (1948)
Degree Days  
Heating Degree Days 24    
Moisture  
Dew Point 25 °F    
Average Humidity 52    
Maximum Humidity 80    
Minimum Humidity 33    
Precipitation  
Precipitation 0.00 in - - ()
Sea Level Pressure  
Sea Level Pressure 30.16 in    
Wind  
Wind Speed 5 mph (WNW)    
Max Wind Speed 18 mph    
Max Gust Speed 24 mph    
Visibility 10 miles    
Events      
Averages and records for this station are not official NWS values.
T = Trace of Precipitation, MM = Missing Value Source: NWS Daily Summary

Daily Weather History Graph

Daily Weather History Graph

Search for Another Location

Airport:

Trip Planner

Search our weather history database for the weather conditions in past years. The results will help you decide how hot, cold, wet, or windy it might be!

Date:

Astronomy

Mar. 12, 2013 Rise Set
Actual Time 7:31 AM CDT 7:21 PM CDT
Civil Twilight 7:06 AM CDT 7:47 PM CDT
Nautical Twilight 6:36 AM CDT 8:17 PM CDT
Astronomical Twilight 6:06 AM CDT 8:47 PM CDT
Moon 7:41 AM CDT (3/12) 8:34 PM CDT (3/12)
Length of Visible Light 12h 41m
Length of Day
11h 50m
New Moon, 1% of the Moon is Illuminated
Mar 12
New Moon
Mar 19
First Quarter
Mar 27
Full
Apr 2
Last Quarter
Apr 10
New

Hourly Weather History & Observations

Time (CDT) Temp. Windchill Dew Point Humidity Pressure Visibility Wind Dir Wind Speed Gust Speed Precip Events Conditions
12:35 AM 32.0 °F - 21.2 °F 64% 30.01 in 10.0 mi Calm Calm - N/A   Clear
12:55 AM 32.0 °F - 24.8 °F 75% 30.02 in 10.0 mi Calm Calm - N/A   Clear
1:15 AM 30.2 °F 26.7 °F 21.2 °F 69% 30.02 in 10.0 mi South 3.5 mph - N/A   Clear
1:35 AM 30.2 °F 24.3 °F 21.2 °F 69% 30.04 in 10.0 mi SSW 5.8 mph - N/A   Clear
1:55 AM 28.4 °F 23.3 °F 21.2 °F 74% 30.03 in 10.0 mi South 4.6 mph - N/A   Clear
2:15 AM 30.2 °F - 21.2 °F 69% 30.05 in 10.0 mi Calm Calm - N/A   Clear
2:35 AM 30.2 °F - 24.8 °F 80% 30.06 in 10.0 mi Calm Calm - N/A   Clear
2:55 AM 30.2 °F - 23.0 °F 75% 30.05 in 10.0 mi Calm Calm - N/A   Clear
3:15 AM 32.0 °F - 23.0 °F 69% 30.04 in 10.0 mi Calm Calm - N/A   Clear
3:35 AM 33.8 °F - 23.0 °F 65% 30.02 in 10.0 mi Calm Calm - N/A   Clear
3:55 AM 32.0 °F 28.7 °F 24.8 °F 75% 30.01 in 10.0 mi East 3.5 mph - N/A   Scattered Clouds
4:15 AM 33.8 °F 30.8 °F 24.8 °F 70% 30.01 in 10.0 mi NE 3.5 mph - N/A   Scattered Clouds
4:35 AM 33.8 °F 30.8 °F 26.6 °F 75% 30.04 in 10.0 mi WNW 3.5 mph - N/A   Scattered Clouds
4:55 AM 33.8 °F 28.6 °F 26.6 °F 75% 30.06 in 10.0 mi SW 5.8 mph - N/A   Mostly Cloudy
5:15 AM 33.8 °F - 26.6 °F 75% 30.08 in 10.0 mi Calm Calm - N/A   Overcast
5:35 AM 33.8 °F - 26.6 °F 75% 30.11 in 10.0 mi Calm Calm - N/A   Overcast
5:55 AM 33.8 °F - 26.6 °F 75% 30.11 in 10.0 mi Calm Calm - N/A   Overcast
6:15 AM 33.8 °F - 26.6 °F 75% 30.12 in 10.0 mi Calm Calm - N/A   Mostly Cloudy
6:35 AM 35.6 °F 30.7 °F 26.6 °F 70% 30.11 in 10.0 mi SSW 5.8 mph - N/A   Scattered Clouds
6:55 AM 35.6 °F 29.9 °F 24.8 °F 65% 30.11 in 10.0 mi SW 6.9 mph - N/A   Partly Cloudy
7:15 AM 35.6 °F 31.7 °F 26.6 °F 70% 30.11 in 10.0 mi SSW 4.6 mph - N/A   Clear
7:35 AM 37.4 °F 34.9 °F 26.6 °F 65% 30.12 in 10.0 mi SSW 3.5 mph - N/A   Clear
7:55 AM 37.4 °F 33.8 °F 24.8 °F 60% 30.12 in 10.0 mi SSW 4.6 mph - N/A   Partly Cloudy
8:15 AM 37.4 °F 34.9 °F 26.6 °F 65% 30.12 in 10.0 mi SW 3.5 mph - N/A   Scattered Clouds
8:35 AM 37.4 °F 33.8 °F 26.6 °F 65% 30.14 in 10.0 mi SW 4.6 mph - N/A   Mostly Cloudy
8:55 AM 37.4 °F 34.9 °F 26.6 °F 65% 30.16 in 10.0 mi WSW 3.5 mph - N/A   Mostly Cloudy
9:15 AM 37.4 °F 32.8 °F 28.4 °F 70% 30.17 in 10.0 mi WNW 5.8 mph - N/A   Overcast
9:35 AM 41.0 °F 34.7 °F 26.6 °F 57% 30.18 in 10.0 mi WNW 10.4 mph - N/A   Partly Cloudy
9:55 AM 41.0 °F 35.8 °F 26.6 °F 57% 30.18 in 10.0 mi WNW 8.1 mph - N/A   Clear
10:15 AM 42.8 °F 38.0 °F 26.6 °F 53% 30.18 in 10.0 mi West 8.1 mph - N/A   Partly Cloudy
10:35 AM 42.8 °F 39.3 °F 28.4 °F 57% 30.19 in 10.0 mi WNW 5.8 mph - N/A   Mostly Cloudy
10:55 AM 42.8 °F 38.0 °F 28.4 °F 57% 30.20 in 10.0 mi NW 8.1 mph - N/A   Mostly Cloudy
11:15 AM 44.6 °F 40.7 °F 28.4 °F 53% 30.19 in 10.0 mi North 6.9 mph - N/A   Mostly Cloudy
11:35 AM 46.4 °F 44.3 °F 30.2 °F 53% 30.19 in 10.0 mi NW 4.6 mph - N/A   Mostly Cloudy
11:55 AM 48.2 °F - 30.2 °F 50% 30.20 in 10.0 mi WNW 6.9 mph - N/A   Scattered Clouds
12:15 PM 50.0 °F - 26.6 °F 40% 30.20 in 10.0 mi North 9.2 mph - N/A   Scattered Clouds
12:35 PM 50.0 °F - 26.6 °F 40% 30.21 in 10.0 mi North 10.4 mph - N/A   Clear
12:55 PM 51.8 °F - 23.0 °F 33% 30.21 in 10.0 mi WNW 6.9 mph - N/A   Clear
1:15 PM 51.8 °F - 24.8 °F 35% 30.20 in 10.0 mi NW 8.1 mph - N/A   Clear
1:35 PM 51.8 °F - 24.8 °F 35% 30.20 in 10.0 mi NNW 4.6 mph - N/A   Clear
1:55 PM 53.6 °F - 28.4 °F 38% 30.19 in 10.0 mi NW 10.4 mph - N/A   Clear
2:15 PM 53.6 °F - 26.6 °F 35% 30.18 in 10.0 mi West 6.9 mph - N/A   Clear
2:35 PM 53.6 °F - 26.6 °F 35% 30.18 in 10.0 mi NW 9.2 mph - N/A   Clear
2:55 PM 53.6 °F - 24.8 °F 33% 30.17 in 10.0 mi NNW 10.4 mph 18.4 mph N/A   Clear
3:15 PM 53.6 °F - 26.6 °F 35% 30.17 in 10.0 mi NW 13.8 mph 19.6 mph N/A   Clear
3:35 PM 53.6 °F - 26.6 °F 35% 30.17 in 10.0 mi WNW 17.3 mph - N/A   Clear
3:55 PM 53.6 °F - 26.6 °F 35% 30.17 in 10.0 mi WNW 18.4 mph 24.2 mph N/A   Clear
4:15 PM 53.6 °F - 26.6 °F 35% 30.17 in 10.0 mi WNW 16.1 mph 21.9 mph N/A   Clear
4:35 PM 53.6 °F - 26.6 °F 35% 30.18 in 10.0 mi WNW 18.4 mph - N/A   Clear
4:55 PM 53.6 °F - 26.6 °F 35% 30.18 in 10.0 mi WNW 15.0 mph 20.7 mph N/A   Clear
5:15 PM 53.6 °F - 26.6 °F 35% 30.18 in 10.0 mi WNW 13.8 mph 20.7 mph N/A   Clear
5:35 PM 53.6 °F - 26.6 °F 35% 30.18 in 10.0 mi NW 16.1 mph - N/A   Clear
5:55 PM 53.6 °F - 26.6 °F 35% 30.18 in 10.0 mi WNW 12.7 mph - N/A   Clear
6:15 PM 51.8 °F - 26.6 °F 38% 30.18 in 10.0 mi NW 11.5 mph 16.1 mph N/A   Clear
6:35 PM 51.8 °F - 26.6 °F 38% 30.18 in 10.0 mi NW 15.0 mph 19.6 mph N/A   Partly Cloudy
6:55 PM 51.8 °F - 26.6 °F 38% 30.18 in 10.0 mi NW 12.7 mph 18.4 mph N/A   Partly Cloudy
7:15 PM 50.0 °F - 26.6 °F 40% 30.19 in 10.0 mi NW 10.4 mph - N/A   Partly Cloudy
7:35 PM 48.2 °F - 26.6 °F 43% 30.20 in 10.0 mi NW 8.1 mph - N/A   Scattered Clouds
7:55 PM 48.2 °F - 26.6 °F 43% 30.21 in 10.0 mi NNW 12.7 mph 19.6 mph N/A   Partly Cloudy
8:15 PM 48.2 °F - 24.8 °F 40% 30.23 in 10.0 mi NNW 12.7 mph 19.6 mph N/A   Clear
8:35 PM 46.4 °F 41.1 °F 24.8 °F 43% 30.24 in 10.0 mi NNW 11.5 mph 18.4 mph N/A   Clear
8:55 PM 46.4 °F 41.5 °F 21.2 °F 37% 30.25 in 10.0 mi NNW 10.4 mph 19.6 mph N/A   Clear
9:15 PM 44.6 °F 38.8 °F 21.2 °F 39% 30.26 in 10.0 mi NNW 11.5 mph 18.4 mph N/A   Clear
9:35 PM 44.6 °F 38.1 °F 21.2 °F 39% 30.27 in 10.0 mi NNW 13.8 mph 18.4 mph N/A   Clear
9:55 PM 44.6 °F 38.8 °F 19.4 °F 37% 30.27 in 10.0 mi NNW 11.5 mph 17.3 mph N/A   Clear
10:15 PM 42.8 °F 37.5 °F 19.4 °F 39% 30.28 in 10.0 mi NNW 9.2 mph 17.3 mph N/A   Clear
10:35 PM 42.8 °F 38.6 °F 17.6 °F 36% 30.29 in 10.0 mi NNW 6.9 mph - N/A   Clear
10:55 PM 42.8 °F 39.3 °F 17.6 °F 36% 30.30 in 10.0 mi NNW 5.8 mph - N/A   Clear
11:15 PM 41.0 °F 35.2 °F 17.6 °F 39% 30.30 in 10.0 mi NNW 9.2 mph - N/A   Clear
11:35 PM 39.2 °F 34.2 °F 19.4 °F 45% 30.30 in 10.0 mi North 6.9 mph - N/A   Clear
11:55 PM 39.2 °F 35.0 °F 19.4 °F 45% 30.31 in 10.0 mi North 5.8 mph - N/A   Clear